Lid_Strength_Index
7 7 7 7 6 6 6 6 6 6 5 6 6 5 5 5 5 9 10 11 11 12 11 11 10 12 11 10 13 12 12 12 12 13 14 14 14 13 14 13 13 14 15 15 15 17 18 9 9 11 10 8 8 9
7 7 7 6 6 6 6 5 5 5 6 5 5 5 4 4 4 5 8 8 6 8 8 7 6 5 5 6 8 8 10 11 10 12 11 10 12 11 13 16 10 15 12 14 13 14 10 7 8 7 8 9 9 9
7 7 6 6 6 6 6 5 5 5 5 5 4 4 3 3 3 4 5 4 5 6 8 9 8 5 3 3 2 7 6 5 7 5 9 12 12 10 14 13 12 10 8 11 12 11 9 8 7 7 7 8 8 8
7 6 6 6 6 6 6 5 5 5 5 4 3 3 2 1 1 1 5 6 3 5 8 9 4 6 4 5 4 4 5 6 7 6 8 9 11 10 12 11 11 9 8 10 10 9 8 7 7 8 7 7 7 7
7 7 6 6 6 6 6 5 5 4 3 3 2 1 1 0 -1 2 5 5 3 5 9 8 6 6 5 5 4 4 5 6 7 8 8 10 8 9 11 10 12 8 10 12 12 8 8 8 6 6 7 8 7 8
7 7 7 6 6 6 5 5 4 4 3 2 1 1 -0 -1 0 5 9 6 3 3 7 10 7 6 5 3 3 4 6 6 6 8 8 7 6 8 12 14 9 7 7 7 8 6 6 5 5 5 6 6 6 7
7 7 7 6 6 6 5 4 3 3 2 1 1 -0 -1 -1 4 7 8 5 1 2 7 10 10 6 5 4 5 4 5 7 6 7 8 8 8 7 10 12 9 6 6 5 5 5 7 6 6 5 5 6 6 7
7 7 6 6 5 5 4 3 2 1 1 1 -1 -2 -2 -1 2 5 3 1 1 4 6 10 11 10 5 7 8 7 7 6 7 7 7 9 7 8 11 10 7 6 6 6 6 5 5 5 5 6 6 7 8 9
7 6 6 5 4 3 3 2 1 1 1 0 -0 -0 3 5 7 6 1 1 3 5 10 10 12 13 7 7 7 7 7 10 7 9 9 8 10 12 11 8 7 6 7 7 5 5 5 6 7 7 8 9 9 9
7 6 5 4 3 2 1 1 0 0 0 1 4 6 8 6 1 2 6 6 7 6 7 10 8 11 8 8 9 9 8 10 12 10 9 11 11 7 7 6 6 5 5 5 7 7 7 8 7 7 7 8 8 8
5 4 3 3 2 1 1 0 -0 -0 2 6 7 10 5 1 6 7 10 9 9 10 9 9 9 10 7 10 10 8 10 10 13 11 11 12 12 8 6 5 5 4 5 5 5 5 5 6 7 7 7 8 8 8
3 3 3 2 2 1 0 0 -0 4 5 5 3 2 5 7 8 10 11 12 13 13 9 9 9 8 9 7 9 8 10 10 14 9 11 13 10 7 6 5 5 5 4 5 4 5 5 5 5 6 7 8 9 8
3 3 3 2 1 0 0 -0 -1 -1 2 4 5 8 9 8 13 11 12 12 11 9 8 8 10 8 8 7 8 9 12 12 8 12 13 11 8 6 6 5 5 4 4 4 5 5 4 5 5 5 5 7 7 8
3 3 2 1 1 0 0 -1 -1 1 5 7 8 13 13 13 11 9 10 10 8 8 8 8 9 9 8 9 9 11 10 9 13 14 13 9 7 6 5 4 4 5 5 4 4 3 4 4 5 4 4 5 6 8
3 2 2 2 1 1 -0 -1 -0 4 5 8 8 14 12 9 8 8 8 10 8 9 8 9 8 9 9 10 9 10 12 14 13 13 10 7 6 6 6 5 5 5 4 4 3 3 3 4 4 4 4 5 6 7
3 3 4 1 1 0 -0 1 3 4 5 7 8 10 9 11 11 10 7 8 8 8 9 7 9 10 10 10 11 12 13 14 11 9 7 6 7 6 6 4 4 4 4 3 3 3 3 3 4 4 4 4 5 6
3 6 2 1 0 0 0 3 4 5 7 7 9 9 10 10 10 8 7 7 5 8 9 9 11 11 9 11 12 10 12 9 7 6 6 6 6 5 4 4 3 3 4 4 4 3 3 3 3 4 4 4 4 4
8 6 2 1 0 3 3 4 6 7 8 9 10 10 10 9 8 7 6 5 6 7 7 9 7 10 12 12 12 9 7 6 5 5 5 4 4 4 4 4 4 4 4 4 4 4 3 4 5 5 4 3 4 5
5 3 1 0 1 4 5 5 6 9 9 9 9 10 8 8 6 5 5 5 6 6 7 7 9 10 10 9 8 7 6 6 6 5 4 4 3 3 3 3 4 4 4 4 4 4 4 4 4 5 4 5 6 7
2 1 1 0 2 5 7 7 6 8 9 9 9 10 9 7 6 5 5 6 6 7 8 9 9 8 8 6 5 5 6 5 5 6 5 4 3 3 3 4 4 4 4 4 4 5 4 4 4 5 5 6 7 8
3 3 1 3 4 5 7 8 8 8 9 9 9 9 8 7 7 7 7 5 7 8 8 7 6 5 5 5 5 5 6 5 5 6 5 5 3 4 3 3 3 3 3 4 4 4 5 5 5 5 5 6 7 8
5 2 5 4 6 6 8 7 8 8 9 9 8 8 8 8 9 9 7 7 8 7 6 6 6 6 5 4 4 4 4 4 4 4 4 4 4 4 5 4 4 4 4 3 3 4 4 4 5 5 6 7 8 8
3 4 6 5 9 11 10 7 8 9 10 9 8 8 8 8 7 7 9 8 7 5 5 6 6 4 5 4 3 4 4 5 5 5 4 4 5 5 6 6 6 7 6 5 4 4 4 7 4 3 5 6 7 9
3 6 8 8 9 10 6 8 8 8 8 9 9 9 9 9 8 8 9 8 6 5 7 6 6 6 5 5 5 5 4 3 5 6 6 6 7 7 6 7 7 7 7 6 5 5 4 4 5 3 2 6 7 8
12 11 10 14 8 8 9 9 9 10 10 9 9 10 10 9 10 10 11 9 7 7 6 5 6 7 7 5 5 5 4 6 7 8 7 7 7 7 8 7 8 7 7 8 7 7 6 5 4 4 3 4 5 7
15 10 11 9 9 9 10 10 10 10 10 10 10 10 10 12 12 12 11 9 9 7 6 7 7 6 6 5 5 6 5 4 5 7 7 7 8 8 9 9 9 8 7 7 7 7 7 6 6 3 2 3 8 7
12 9 8 7 8 9 11 9 9 10 10 10 10 11 13 13 13 11 8 8 8 7 6 5 5 5 6 7 6 5 5 5 6 6 6 7 7 7 8 9 9 8 7 7 7 7 7 7 7 4 3 4 5 6
8 6 10 8 10 10 9 9 9 9 10 9 9 11 12 14 14 9 8 7 7 6 6 6 6 6 6 6 6 6 6 6 5 6 7 8 7 7 7 7 7 9 7 7 7 7 7 7 7 4 3 3 4 5
9 8 8 9 9 10 9 9 9 9 8 9 11 12 12 10 8 7 6 7 7 7 6 6 6 6 6 6 6 7 8 8 8 9 10 10 10 9 8 8 7 7 7 7 9 9 8 6 4 4 3 4 4 5
10 9 10 8 12 11 9 8 8 7 7 8 8 8 9 8 6 6 7 7 8 7 7 6 6 6 7 7 7 7 8 8 8 9 10 10 10 9 8 8 8 8 8 8 7 7 8 6 6 4 5 4 4 4
10 8 10 11 10 9 7 6 6 6 7 8 7 10 10 9 7 6 7 7 6 7 7 7 7 6 6 6 6 7 8 8 8 7 8 9 9 8 8 8 8 8 8 7 8 8 8 7 7 7 6 5 6 6
13 13 12 12 11 8 7 8 8 10 9 9 10 8 8 8 9 8 6 7 7 6 7 7 7 7 7 6 7 7 9 7 8 8 8 8 8 8 9 9 8 7 8 8 7 8 8 9 9 9 8 7 6 6
8 8 10 8 10 8 8 8 8 8 8 10 9 8 8 9 11 8 6 6 6 6 6 7 7 7 7 6 6 6 8 7 8 11 11 11 11 11 10 9 8 8 8 8 7 7 8 8 8 9 9 8 7 6